Location: Castelbiague
(43.0361°N, 0.9246°E)
Time: 07:49:35
(UTC+00:00)

Resurs 01 Rocket - Pass Details

Date: 17 June 2021
Orbit: 635 x 643 km, 97.9° (Epoch: 26 July)

Event Time Altitude Azimuth Distance (km) Brightness Sun altitude
Exits shadow 21:27:02 - 204° (SSW) 2,456 4.3 -15.1°
Reaches altitude 10° 21:28:20 10° 213° (SSW) 2,017 4.0 -15.2°
Maximum altitude 21:31:49 23° 266° (W) 1,361 3.6 -15.6°
Drops below altitude 10° 21:35:20 10° 319° (NW) 2,029 5.5 -16.0°
Sets 21:37:57 0° 334° (NNW) 2,943 6.8 -16.2°
